User: anonymous   Login
Location: Natural Bridges National Monument
(37.6093°N, 109.9767°W)
Time: 10:25:54
(UTC-06:00)
Language:

USA 32 - Orbit

View from above orbital plane
View from above orbital plane
View from above satellite
View from above satellite

Ground track
Ground track

The orbit data is extracted from the following two-line orbital elements,

1 19460U 88078A   17248.92692996 0.00000025  00000-0  90728-5 0    06
2 19460  84.9882 175.1446 0001000 331.5282  28.4716 14.33422794    01
Epoch (UTC): 05 September 2017 22:14:46
Eccentricity: 0.0001000
inclination: 84.9882°
perigee height: 779 km
apogee height: 781 km
right ascension of ascending node: 175.1446°
argument of perigee: 331.5282°
revolutions per day: 14.33422794
mean anomaly at epoch: 28.4716°
orbit number at epoch: 0

The dashed part of the orbit path shows where the satellite is in the earth's shadow,  

DLR